User: anonymous   Login
Location: *
(43.6428°N, 11.5461°E)
Time: 00:07:04
(UTC+00:00)
Language:

STARLINK-52 - Orbit

View from above orbital plane
View from above orbital plane
View from above satellite
View from above satellite

Ground track
Ground track

The orbit data is extracted from the following two-line orbital elements,

1 44259U 19029AA  19342.11369623  .00001204  00000-0  38766-4 0  9996
2 44259  53.0031 317.7512 0001383  50.3298 309.7827 15.40731112 30493
Epoch (UTC): 08 December 2019 02:43:43
Eccentricity: 0.0001383
inclination: 53.0031°
perigee height: 443 km
apogee height: 445 km
right ascension of ascending node: 317.7512°
argument of perigee: 50.3298°
revolutions per day: 15.40731112
mean anomaly at epoch: 309.7827°
orbit number at epoch: 3049

The dashed part of the orbit path shows where the satellite is in the earth's shadow,  

DLR